Presure
239 249 256 244 245 173 252 119 179 173 176 172 127 137 165 135 155 82 137 81 134 101 138 140 194 149 139 107 176 146 142 141 149 134 131 130 121 126 153 167 143 145 165
259 239 251 249 235 202 203 112 199 146 177 181 169 149 163 168 132 144 168 88 121 144 147 117 116 142 120 153 159 139 146 158 141 157 162 163 148 123 150 143 151 154 152
267 262 237 250 243 222 180 249 113 123 153 151 148 174 176 170 157 132 163 163 103 142 172 165 151 124 89 91 171 169 140 150 161 139 146 157 151 145 114 175 150 149 194
241 260 258 238 248 244 238 252 248 239 190 149 148 177 172 129 178 135 175 173 174 138 135 142 153 138 142 136 131 139 99 149 167 143 164 155 156 146 118 164 159 157 145
247 242 239 254 237 242 240 239 245 240 212 177 171 168 174 174 162 185 181 178 140 135 131 146 182 120 143 145 141 142 133 132 126 144 158 165 102 137 145 168 105 110 151
283 255 243 239 250 241 239 238 240 245 247 245 187 178 166 168 163 135 153 162 174 179 144 131 148 140 162 141 143 107 134 152 151 131 104 133 94 180 160 144 140 141 160
282 276 261 243 237 240 238 234 231 233 241 246 238 228 198 193 166 179 178 157 126 179 176 169 165 169 162 162 171 146 152 142 154 112 150 125 122 96 137 93 91 97 156
276 284 284 265 240 246 240 241 233 221 225 230 213 241 216 192 201 174 174 118 166 168 174 130 159 172 176 169 151 137 192 163 150 179 162 181 156 151 137 145 144 145 160
270 274 279 287 247 245 239 236 241 231 233 222 231 247 206 178 195 208 183 187 172 163 176 180 175 178 172 171 148 172 171 172 169 148 135 159 132 180 173 144 144 151 182
267 266 272 284 290 264 245 232 240 247 232 226 230 235 243 206 179 200 208 179 203 189 180 184 184 172 173 168 173 170 170 165 178 187 183 155 185 140 144 129 137 137 145
263 268 263 274 286 286 263 241 235 239 248 255 223 229 235 241 241 180 181 237 185 189 193 191 155 173 179 177 158 141 141 172 164 169 159 143 179 187 202 192 201 188 179
252 263 269 271 277 279 276 256 238 229 246 249 266 218 222 231 238 238 246 245 240 190 181 192 194 190 185 126 122 178 176 134 129 132 141 140 141 144 149 153 181 187 169
259 259 262 266 267 275 280 278 271 251 236 246 238 248 270 239 229 228 235 238 244 238 242 194 193 196 194 191 189 188 186 187 140 143 120 140 159 163 187 160 169 143 135
258 248 254 264 263 262 268 275 288 291 304 250 240 235 236 255 244 244 237 229 234 236 240 234 237 205 191 184 196 192 192 189 188 183 179 171 175 197 180 179 184 181 192
268 258 252 251 264 264 264 265 266 297 319 301 301 251 251 235 241 241 249 250 249 228 229 232 233 220 187 184 181 185 184 185 193 198 197 181 178 177 174 180 183 183 180
273 267 259 254 261 260 261 310 267 265 310 321 307 293 302 228 239 242 248 250 246 248 261 273 256 226 229 228 242 244 234 225 224 193 193 192 191 192 190 186 183 184 191
272 270 269 264 265 279 281 298 309 279 264 309 316 311 291 288 263 243 235 240 241 241 243 253 259 257 237 222 220 222 243 246 225 219 214 215 215 215 205 196 199 201 192
276 275 272 268 265 269 272 276 292 305 309 309 304 300 304 309 306 288 269 241 241 248 244 239 243 245 251 250 256 241 242 258 229 238 228 215 215 213 211 212 215 214 217
284 278 274 274 273 273 275 275 274 275 282 305 309 306 301 298 300 303 304 306 261 246 241 239 236 235 243 244 245 251 261 243 235 243 225 232 228 219 210 208 219 207 208
288 286 285 280 275 273 273 274 275 279 278 277 290 303 305 305 299 297 299 297 302 304 256 243 239 223 234 240 246 246 238 245 244 259 255 246 247 256 255 257 289 268 223
287 279 281 287 288 284 276 271 273 278 278 276 276 279 291 301 303 302 302 289 297 295 299 261 228 223 234 235 234 234 240 241 238 236 242 255 259 258 246 231 278 290 310
340 343 340 316 275 282 288 288 282 273 271 279 281 275 272 276 287 298 300 300 300 300 299 298 295 292 284 263 244 239 238 241 239 245 250 243 242 246 256 291 313 317 266
333 333 331 332 340 345 331 278 297 285 284 282 276 271 279 274 272 275 280 283 298 295 298 295 291 291 290 285 282 253 272 244 249 246 234 244 248 247 242 241 251 334 328
331 330 330 331 334 336 333 332 341 337 298 280 289 293 288 277 272 278 275 272 274 276 281 268 289 296 293 288 284 282 281 278 278 277 243 243 240 239 239 236 239 251 303
336 341 344 344 338 335 333 332 334 337 335 336 340 326 296 284 288 291 289 284 278 270 271 275 274 275 288 296 301 301 295 295 297 287 275 279 277 276 258 257 269 269 268
318 323 321 322 329 336 340 342 341 340 340 337 339 341 340 335 330 322 306 305 304 300 296 292 279 271 273 279 284 286 286 286 287 287 285 295 291 294 296 297 297 298 300
Wind_Speed
106 105 105 109 110 96 112 94 135 127 138 141 97 93 107 97 104 54 89 46 82 67 83 82 97 87 80 65 85 81 75 74 74 68 65 63 58 63 63 63 64 63 55
105 107 105 107 114 116 129 91 118 113 133 138 136 115 122 120 96 102 109 53 80 92 93 79 71 89 74 87 89 79 82 79 79 79 79 75 74 62 71 70 66 64 65
103 104 108 106 110 118 121 114 94 99 119 117 117 146 146 134 118 98 114 109 70 97 116 106 95 80 57 56 95 91 80 82 86 78 79 81 78 78 58 69 75 72 68
103 103 104 109 108 109 112 111 115 121 141 113 115 144 139 104 145 101 138 133 125 99 89 95 100 88 92 87 80 86 66 91 93 86 88 84 82 78 67 74 77 74 75
107 104 105 105 110 110 111 112 113 117 133 139 133 134 146 141 130 145 141 137 110 101 90 105 129 78 93 98 93 92 81 83 80 90 93 91 61 74 81 88 60 65 79
99 107 105 107 107 110 112 112 113 115 116 118 121 142 135 133 126 109 115 116 137 142 106 93 105 97 108 95 100 74 88 98 98 82 68 81 61 101 92 84 79 78 81
95 102 108 106 109 110 113 114 116 116 116 118 123 133 145 148 139 147 145 115 98 141 144 127 117 126 120 113 117 101 105 99 99 79 99 83 78 66 80 67 65 70 91
92 94 98 107 108 109 113 115 117 120 120 120 128 124 140 146 150 144 142 94 130 140 144 98 127 129 134 121 107 93 135 110 106 115 112 107 103 99 84 90 87 88 87
90 92 94 96 106 108 112 114 115 118 119 123 122 120 137 138 144 148 147 153 140 125 147 150 144 147 135 136 105 128 120 117 114 101 91 107 87 113 108 93 92 97 95
89 91 92 93 96 106 110 115 114 114 119 122 122 122 122 136 141 141 140 143 154 158 154 155 150 143 144 124 142 132 130 124 133 140 133 106 129 93 97 90 89 87 94
88 90 92 93 94 97 107 112 114 115 115 115 125 123 123 123 126 140 141 137 147 150 157 158 132 144 154 152 129 108 108 134 123 121 114 97 133 138 143 138 138 121 104
88 89 91 92 93 95 100 109 113 117 114 115 110 127 126 125 126 127 127 132 135 151 144 154 158 159 160 103 95 149 147 99 87 87 98 98 95 95 97 100 123 130 107
88 88 89 90 91 93 96 99 106 112 115 113 116 114 109 125 127 129 128 130 131 137 135 151 154 158 156 153 156 157 158 155 106 103 87 100 117 116 147 113 123 91 88
89 88 88 90 90 91 93 96 97 99 99 112 115 118 119 113 121 125 129 131 131 134 135 141 138 157 153 147 156 149 151 152 152 151 148 135 137 158 148 144 145 136 150
88 91 90 90 91 92 93 94 96 93 92 99 101 112 112 120 118 122 122 124 127 135 136 137 139 143 148 146 145 146 143 145 151 156 156 147 144 143 140 146 146 144 137
86 89 91 90 91 91 91 83 95 96 89 90 96 101 101 124 117 117 118 120 125 126 124 123 131 141 140 140 138 144 152 151 153 155 156 157 156 157 155 153 149 150 155
84 87 88 90 90 87 87 83 83 91 96 89 89 94 100 103 111 116 121 120 123 124 125 125 125 129 136 139 140 142 142 150 153 155 154 154 155 155 159 159 157 156 155
81 84 86 88 90 89 89 88 84 84 85 87 89 93 93 94 98 105 114 119 120 119 122 125 125 127 128 131 132 138 140 139 144 150 157 158 159 154 154 155 156 155 155
79 83 85 86 87 88 88 89 90 90 88 86 87 89 92 94 95 96 98 100 115 121 124 125 127 128 126 128 130 129 129 138 141 144 145 150 152 153 151 150 157 152 153
79 81 83 86 87 89 90 90 90 90 90 91 89 88 89 91 94 96 97 100 100 103 119 125 127 128 129 128 128 129 133 132 135 132 136 141 142 143 146 149 136 159 155
78 81 83 84 86 88 91 92 92 91 92 92 93 93 91 91 92 93 95 99 99 101 102 118 128 129 130 130 131 131 130 133 134 135 134 131 130 132 138 141 132 130 125
59 63 68 76 87 88 90 91 93 94 95 94 94 95 96 96 94 94 94 95 97 98 101 102 105 108 114 123 128 129 129 130 130 130 131 132 131 130 127 120 114 115 132
59 62 65 68 69 71 78 93 91 93 95 96 97 98 97 98 99 99 98 98 97 99 100 102 104 106 108 111 114 126 120 129 128 130 130 129 128 128 128 129 127 102 104
60 62 64 66 67 69 73 76 77 81 93 96 96 96 98 100 100 100 101 102 102 102 102 107 104 104 106 108 110 111 113 115 117 119 130 129 128 128 129 126 123 124 109
56 59 62 64 67 68 71 73 75 77 81 84 86 90 96 98 99 100 101 103 103 104 104 105 106 106 105 105 104 104 106 107 107 110 116 114 115 117 124 122 119 120 120
61 61 62 63 66 66 67 69 71 74 77 80 81 84 87 90 93 96 99 100 101 101 103 104 106 106 107 107 106 106 106 107 107 105 106 105 106 106 107 105 104 105 105
Wind_Direction
229 229 229 228 229 233 226 228 232 232 233 235 232 228 238 235 233 241 238 233 236 238 238 237 247 234 239 237 255 238 238 241 244 245 245 247 246 252 251 248 256 254 257
231 229 228 228 229 228 225 238 228 233 232 232 238 239 240 243 238 242 247 234 240 238 243 237 238 239 238 238 240 241 241 247 244 244 248 255 246 249 249 253 252 253 254
231 230 229 229 229 229 230 228 239 230 231 233 234 240 243 244 243 238 247 246 242 242 254 246 236 240 240 241 255 240 243 247 249 244 245 249 245 247 246 244 252 252 275
230 231 229 229 229 229 230 229 228 228 229 229 233 236 242 232 245 239 248 250 249 242 239 240 244 242 242 244 243 243 242 243 251 247 252 248 245 248 246 257 248 249 254
230 228 229 229 229 229 229 229 229 228 226 231 233 234 240 243 240 243 246 249 238 242 239 240 256 240 243 242 245 245 244 254 246 245 255 259 242 248 250 261 245 248 251
229 231 228 228 228 229 228 228 228 229 228 226 231 233 236 240 241 236 243 240 249 250 245 241 246 244 246 243 245 244 246 247 249 253 246 249 247 267 244 252 248 254 252
229 230 231 227 227 228 228 228 227 227 229 228 226 227 230 232 241 242 244 242 241 246 250 249 245 250 253 250 255 247 247 248 250 247 247 249 250 250 249 255 254 255 251
230 230 230 231 227 227 228 229 228 228 228 229 229 228 229 233 231 239 242 245 246 247 249 245 247 252 256 254 250 246 262 255 249 264 248 260 251 252 253 255 254 255 254
229 230 230 230 229 228 228 229 230 230 229 229 229 231 230 234 234 234 236 238 243 246 249 251 251 253 255 257 250 259 258 259 257 253 249 261 247 268 255 257 255 256 264
228 229 230 230 230 229 228 229 230 230 230 230 229 229 231 232 235 235 235 239 237 240 244 246 247 252 254 253 256 257 259 260 265 267 269 256 270 251 253 252 253 254 255
229 228 228 229 230 229 230 228 229 230 230 231 231 230 230 231 232 235 237 233 239 239 241 242 247 248 251 254 256 255 254 261 260 262 260 253 269 270 269 273 273 273 263
231 231 231 230 230 230 231 231 229 229 231 231 231 232 232 232 232 233 235 234 233 239 242 243 244 244 248 252 253 257 258 255 254 254 257 256 255 256 258 257 272 274 265
231 233 234 233 233 233 232 233 233 232 231 232 231 232 233 232 233 233 234 235 236 236 236 241 243 245 247 247 249 252 255 257 256 252 249 256 262 265 270 263 267 255 251
231 233 234 235 235 234 234 235 235 235 234 233 231 231 232 233 233 234 235 235 236 237 238 238 239 242 246 250 249 249 250 252 255 257 261 263 264 262 268 268 268 270 271
230 231 233 234 235 235 235 235 236 237 236 236 236 236 235 233 233 234 234 235 236 237 238 239 240 242 247 249 251 252 253 253 253 253 254 256 259 262 265 267 268 269 270
231 232 233 235 235 236 236 238 236 236 238 239 238 237 237 234 233 234 235 236 236 237 239 240 241 241 243 244 243 242 243 247 249 256 256 257 258 259 261 263 266 269 269
232 233 234 235 236 237 238 239 239 238 238 239 239 239 238 238 237 234 235 236 237 238 238 239 241 242 242 243 245 246 244 243 246 249 252 254 255 256 257 259 261 263 266
234 234 235 236 236 237 238 239 240 240 241 241 240 240 240 240 240 240 239 237 238 239 239 239 240 241 243 244 245 246 246 246 247 246 247 251 254 255 257 260 260 261 261
236 236 237 237 237 238 239 239 239 239 240 242 242 242 242 242 241 241 241 241 239 238 239 240 240 242 243 244 245 246 247 248 248 248 249 249 250 252 255 258 258 261 263
238 238 238 238 239 239 240 240 241 241 240 240 241 243 243 243 243 243 243 242 242 242 241 241 241 244 243 243 244 245 246 248 249 251 251 253 253 253 253 253 258 255 258
239 240 241 241 241 240 241 241 242 243 243 242 241 241 243 244 244 244 244 244 245 244 244 243 244 245 245 245 245 246 247 247 249 250 252 252 253 254 255 256 257 258 262
245 244 244 243 242 243 243 243 242 243 243 244 244 243 242 243 244 245 245 245 245 246 246 246 246 246 246 246 247 248 249 249 250 251 252 252 253 254 255 257 258 260 257
247 247 246 246 245 245 244 244 244 244 244 244 244 245 244 244 244 244 245 245 246 246 247 247 248 248 248 248 248 248 248 250 251 252 253 253 254 254 255 256 257 259 259
249 248 247 247 247 246 246 246 246 245 245 245 246 246 246 246 246 246 246 246 246 246 247 246 248 249 250 250 249 250 250 250 251 252 252 254 255 256 256 257 258 258 260
250 250 249 249 249 248 246 246 247 247 246 246 245 245 246 247 247 247 247 247 248 248 248 248 249 249 250 251 252 252 252 253 253 254 254 255 254 255 256 257 258 258 259
252 250 249 249 249 249 249 248 248 248 248 247 247 247 247 247 247 248 248 249 250 250 250 249 249 250 251 252 252 252 253 254 254 255 255 257 257 257 258 258 259 260 260